Year,Month,Day,Hour,Minute,Value (Times are PST for temperature in C)
2008,04,26,00,00,4.90
2008,04,26,00,01,5.00
2008,04,26,00,02,5.10
2008,04,26,00,03,5.00
2008,04,26,00,04,4.90
2008,04,26,00,05,4.90
2008,04,26,00,06,4.90
2008,04,26,00,07,4.90
2008,04,26,00,08,4.90
2008,04,26,00,09,4.90
2008,04,26,00,10,4.90
2008,04,26,00,11,5.00
2008,04,26,00,12,5.10
2008,04,26,00,13,5.10
2008,04,26,00,14,5.10
2008,04,26,00,15,5.10
2008,04,26,00,16,5.10
2008,04,26,00,17,5.10
2008,04,26,00,18,5.10
2008,04,26,00,19,5.10
2008,04,26,00,20,5.10
2008,04,26,00,21,5.10
2008,04,26,00,22,5.10
2008,04,26,00,23,5.10
2008,04,26,00,24,5.10
2008,04,26,00,25,5.10
2008,04,26,00,26,5.10
2008,04,26,00,27,5.10
2008,04,26,00,28,5.00
2008,04,26,00,29,4.90
2008,04,26,00,30,4.90
2008,04,26,00,31,4.90
2008,04,26,00,32,4.90
2008,04,26,00,33,4.80
2008,04,26,00,34,4.80
2008,04,26,00,35,4.70
2008,04,26,00,36,4.60
2008,04,26,00,37,4.60
2008,04,26,00,38,4.50
2008,04,26,00,39,4.40
2008,04,26,00,40,4.40
2008,04,26,00,41,4.30
2008,04,26,00,42,4.30
2008,04,26,00,43,4.20
2008,04,26,00,44,4.20
2008,04,26,00,45,4.20
2008,04,26,00,46,4.20
2008,04,26,00,47,4.10
2008,04,26,00,48,4.10
2008,04,26,00,49,4.10
2008,04,26,00,50,4.10
2008,04,26,00,51,4.00
2008,04,26,00,52,4.00
2008,04,26,00,53,4.00
2008,04,26,00,54,4.10
2008,04,26,00,55,4.10
2008,04,26,00,56,4.10
2008,04,26,00,57,4.10
2008,04,26,00,58,4.20
2008,04,26,00,59,4.30
2008,04,26,01,00,4.40
2008,04,26,01,01,4.50
2008,04,26,01,02,4.60
2008,04,26,01,03,4.70
2008,04,26,01,04,4.80
2008,04,26,01,05,4.80
2008,04,26,01,06,4.80
2008,04,26,01,07,5.00
2008,04,26,01,08,5.10
2008,04,26,01,09,5.10
2008,04,26,01,10,5.30
2008,04,26,01,11,5.30
2008,04,26,01,12,5.40
2008,04,26,01,13,5.40
2008,04,26,01,14,5.40
2008,04,26,01,15,5.40
2008,04,26,01,16,5.30
2008,04,26,01,17,5.30
2008,04,26,01,18,5.30
2008,04,26,01,19,5.20
2008,04,26,01,20,5.20
2008,04,26,01,21,5.10
2008,04,26,01,22,5.10
2008,04,26,01,23,5.10
2008,04,26,01,24,4.90
2008,04,26,01,25,4.90
2008,04,26,01,26,4.90
2008,04,26,01,27,4.90
2008,04,26,01,28,4.90
2008,04,26,01,29,4.90
2008,04,26,01,30,4.90
2008,04,26,01,31,4.90
2008,04,26,01,32,4.90
2008,04,26,01,33,4.90
2008,04,26,01,34,4.90
2008,04,26,01,35,4.90
2008,04,26,01,36,4.90
2008,04,26,01,37,4.90
2008,04,26,01,38,5.10
2008,04,26,01,39,5.10
2008,04,26,01,40,5.10
2008,04,26,01,41,5.10
2008,04,26,01,42,5.10
2008,04,26,01,43,5.10
2008,04,26,01,44,5.10
2008,04,26,01,45,5.00
2008,04,26,01,46,4.90
2008,04,26,01,47,4.90
2008,04,26,01,48,4.80
2008,04,26,01,49,4.80
2008,04,26,01,50,4.80
2008,04,26,01,51,4.80
2008,04,26,01,52,4.80
2008,04,26,01,53,4.90
2008,04,26,01,54,4.90
2008,04,26,01,55,4.90
2008,04,26,01,56,4.90
2008,04,26,01,57,5.00
2008,04,26,01,58,5.10
2008,04,26,01,59,5.10
2008,04,26,02,00,5.10
2008,04,26,02,01,5.10
2008,04,26,02,02,5.20
2008,04,26,02,03,5.20
2008,04,26,02,04,5.20
2008,04,26,02,05,5.20
2008,04,26,02,06,5.20
2008,04,26,02,07,5.20
2008,04,26,02,08,5.20
2008,04,26,02,09,5.20
2008,04,26,02,10,5.10
2008,04,26,02,11,5.10
2008,04,26,02,12,5.10
2008,04,26,02,13,5.10
2008,04,26,02,14,5.10
2008,04,26,02,15,5.10
2008,04,26,02,16,5.10
2008,04,26,02,17,5.10
2008,04,26,02,18,5.20
2008,04,26,02,19,5.30
2008,04,26,02,20,5.30
2008,04,26,02,21,5.40
2008,04,26,02,22,5.50
2008,04,26,02,23,5.60
2008,04,26,02,24,5.60
2008,04,26,02,25,5.70
2008,04,26,02,26,5.70
2008,04,26,02,27,5.70
2008,04,26,02,28,5.70
2008,04,26,02,29,5.70
2008,04,26,02,30,5.80
2008,04,26,02,31,6.00
2008,04,26,02,32,6.00
2008,04,26,02,33,6.00
2008,04,26,02,34,6.00
2008,04,26,02,35,6.00
2008,04,26,02,36,6.00
2008,04,26,02,37,6.00
2008,04,26,02,38,6.00
2008,04,26,02,39,6.00
2008,04,26,02,40,6.00
2008,04,26,02,41,6.00
2008,04,26,02,42,6.00
2008,04,26,02,43,6.10
2008,04,26,02,44,6.10
2008,04,26,02,45,6.10
2008,04,26,02,46,6.10
2008,04,26,02,47,6.10
2008,04,26,02,48,6.10
2008,04,26,02,49,6.10
2008,04,26,02,50,6.10
2008,04,26,02,51,6.10
2008,04,26,02,52,6.10
2008,04,26,02,53,6.10
2008,04,26,02,54,6.10
2008,04,26,02,55,6.10
2008,04,26,02,56,6.10
2008,04,26,02,57,6.10
2008,04,26,02,58,6.10
2008,04,26,02,59,6.20
2008,04,26,03,00,6.20
2008,04,26,03,01,6.20
2008,04,26,03,02,6.20
2008,04,26,03,03,6.20
2008,04,26,03,04,6.20
2008,04,26,03,05,6.20
2008,04,26,03,06,6.20
2008,04,26,03,07,6.20
2008,04,26,03,08,6.20
2008,04,26,03,09,6.20
2008,04,26,03,10,6.10
2008,04,26,03,11,6.10
2008,04,26,03,12,6.10
2008,04,26,03,13,6.00
2008,04,26,03,14,6.00
2008,04,26,03,15,6.00
2008,04,26,03,16,6.00
2008,04,26,03,17,5.90
2008,04,26,03,18,5.90
2008,04,26,03,19,5.90
2008,04,26,03,20,5.80
2008,04,26,03,21,5.80
2008,04,26,03,22,5.70
2008,04,26,03,23,5.70
2008,04,26,03,24,5.60
2008,04,26,03,25,5.60
2008,04,26,03,26,5.50
2008,04,26,03,27,5.50
2008,04,26,03,28,5.50
2008,04,26,03,29,5.50
2008,04,26,03,30,5.50
2008,04,26,03,31,5.50
2008,04,26,03,32,5.50
2008,04,26,03,33,5.50
2008,04,26,03,34,5.50
2008,04,26,03,35,5.50
2008,04,26,03,36,5.50
2008,04,26,03,37,5.50
2008,04,26,03,38,5.50
2008,04,26,03,39,5.50
2008,04,26,03,40,5.50
2008,04,26,03,41,5.50
2008,04,26,03,42,5.50
2008,04,26,03,43,5.50
2008,04,26,03,44,5.50
2008,04,26,03,45,5.50
2008,04,26,03,46,5.50
2008,04,26,03,47,5.50
2008,04,26,03,48,5.50
2008,04,26,03,49,5.50
2008,04,26,03,50,5.50
2008,04,26,03,51,5.40
2008,04,26,03,52,5.40
2008,04,26,03,53,5.40
2008,04,26,03,54,5.40
2008,04,26,03,55,5.30
2008,04,26,03,56,5.30
2008,04,26,03,57,5.30
2008,04,26,03,58,5.30
2008,04,26,03,59,5.30
2008,04,26,04,00,5.30
2008,04,26,04,01,5.30
2008,04,26,04,02,5.30
2008,04,26,04,03,5.30
2008,04,26,04,04,5.30
2008,04,26,04,05,5.30
2008,04,26,04,06,5.30
2008,04,26,04,07,5.30
2008,04,26,04,08,5.30
2008,04,26,04,09,5.30
2008,04,26,04,10,5.30
2008,04,26,04,11,5.30
2008,04,26,04,12,5.30
2008,04,26,04,13,5.30
2008,04,26,04,14,5.30
2008,04,26,04,15,5.30
2008,04,26,04,16,5.30
2008,04,26,04,17,5.30
2008,04,26,04,18,5.30
2008,04,26,04,19,5.20
2008,04,26,04,20,5.10
2008,04,26,04,21,5.10
2008,04,26,04,22,5.10
2008,04,26,04,23,5.00
2008,04,26,04,24,4.90
2008,04,26,04,25,4.90
2008,04,26,04,26,4.90
2008,04,26,04,27,4.90
2008,04,26,04,28,4.90
2008,04,26,04,29,4.80
2008,04,26,04,30,4.80
2008,04,26,04,31,4.80
2008,04,26,04,32,4.70
2008,04,26,04,33,4.70
2008,04,26,04,34,4.70
2008,04,26,04,35,4.70
2008,04,26,04,36,4.70
2008,04,26,04,37,4.70
2008,04,26,04,38,4.80
2008,04,26,04,39,4.90
2008,04,26,04,40,4.90
2008,04,26,04,41,5.00
2008,04,26,04,42,5.10
2008,04,26,04,43,5.10
2008,04,26,04,44,5.10
2008,04,26,04,45,5.10
2008,04,26,04,46,5.10
2008,04,26,04,47,5.10
2008,04,26,04,48,5.10
2008,04,26,04,49,5.10
2008,04,26,04,50,5.10
2008,04,26,04,51,5.10
2008,04,26,04,52,5.10
2008,04,26,04,53,5.10
2008,04,26,04,54,5.10
2008,04,26,04,55,5.10
2008,04,26,04,56,5.10
2008,04,26,04,57,5.10
2008,04,26,04,58,5.10
2008,04,26,04,59,5.20
2008,04,26,05,00,5.20
2008,04,26,05,01,5.20
2008,04,26,05,02,5.10
2008,04,26,05,03,5.10
2008,04,26,05,04,5.10
2008,04,26,05,05,5.10
2008,04,26,05,06,5.10
2008,04,26,05,07,5.10
2008,04,26,05,08,5.10
2008,04,26,05,09,5.10
2008,04,26,05,10,5.10
2008,04,26,05,11,5.00
2008,04,26,05,12,4.90
2008,04,26,05,13,4.90
2008,04,26,05,14,4.90
2008,04,26,05,15,4.90
2008,04,26,05,16,4.90
2008,04,26,05,17,4.90
2008,04,26,05,18,4.90
2008,04,26,05,19,4.90
2008,04,26,05,20,4.80
2008,04,26,05,21,4.80
2008,04,26,05,22,4.80
2008,04,26,05,23,4.80
2008,04,26,05,24,4.80
2008,04,26,05,25,4.80
2008,04,26,05,26,4.70
2008,04,26,05,27,4.70
2008,04,26,05,28,4.70
2008,04,26,05,29,4.70
2008,04,26,05,30,4.70
2008,04,26,05,31,4.80
2008,04,26,05,32,4.80
2008,04,26,05,33,4.80
2008,04,26,05,34,4.80
2008,04,26,05,35,4.90
2008,04,26,05,36,4.90
2008,04,26,05,37,4.90
2008,04,26,05,38,4.90
2008,04,26,05,39,4.90
2008,04,26,05,40,4.90
2008,04,26,05,41,4.90
2008,04,26,05,42,4.80
2008,04,26,05,43,4.80
2008,04,26,05,44,4.80
2008,04,26,05,45,4.80
2008,04,26,05,46,4.80
2008,04,26,05,47,4.70
2008,04,26,05,48,4.70
2008,04,26,05,49,4.60
2008,04,26,05,50,4.60
2008,04,26,05,51,4.60
2008,04,26,05,52,4.50
2008,04,26,05,53,4.50
2008,04,26,05,54,4.40
2008,04,26,05,55,4.40
2008,04,26,05,56,4.30
2008,04,26,05,57,4.30
2008,04,26,05,58,4.20
2008,04,26,05,59,4.20
2008,04,26,06,00,4.20
2008,04,26,06,01,4.10
2008,04,26,06,02,4.10
2008,04,26,06,03,4.00
2008,04,26,06,04,4.00
2008,04,26,06,05,4.00
2008,04,26,06,06,3.90
2008,04,26,06,07,3.90
2008,04,26,06,08,3.90
2008,04,26,06,09,3.90
2008,04,26,06,10,3.90
2008,04,26,06,11,3.90
2008,04,26,06,12,3.90
2008,04,26,06,13,3.90
2008,04,26,06,14,3.90
2008,04,26,06,15,4.00
2008,04,26,06,16,4.00
2008,04,26,06,17,4.00
2008,04,26,06,18,4.10
2008,04,26,06,19,4.10
2008,04,26,06,20,4.20
2008,04,26,06,21,4.20
2008,04,26,06,22,4.20
2008,04,26,06,23,4.20
2008,04,26,06,24,4.20
2008,04,26,06,25,4.30
2008,04,26,06,26,4.30
2008,04,26,06,27,4.40
2008,04,26,06,28,4.40
2008,04,26,06,29,4.40
2008,04,26,06,30,4.50
2008,04,26,06,31,4.50
2008,04,26,06,32,4.50
2008,04,26,06,33,4.50
2008,04,26,06,34,4.50
2008,04,26,06,35,4.50
2008,04,26,06,36,4.50
2008,04,26,06,37,4.50
2008,04,26,06,38,4.40
2008,04,26,06,39,4.40
2008,04,26,06,40,4.30
2008,04,26,06,41,4.30
2008,04,26,06,42,4.20
2008,04,26,06,43,4.20
2008,04,26,06,44,4.20
2008,04,26,06,45,4.20
2008,04,26,06,46,4.20
2008,04,26,06,47,4.10
2008,04,26,06,48,4.10
2008,04,26,06,49,4.10
2008,04,26,06,50,4.10
2008,04,26,06,51,4.00
2008,04,26,06,52,4.00
2008,04,26,06,53,4.00
2008,04,26,06,54,4.00
2008,04,26,06,55,4.10
2008,04,26,06,56,4.10
2008,04,26,06,57,4.10
2008,04,26,06,58,4.20
2008,04,26,06,59,4.20
2008,04,26,07,00,4.20
2008,04,26,07,01,4.30
2008,04,26,07,02,4.40
2008,04,26,07,03,4.60
2008,04,26,07,04,4.60
2008,04,26,07,05,4.60
2008,04,26,07,06,4.70
2008,04,26,07,07,4.90
2008,04,26,07,08,4.90
2008,04,26,07,09,5.00
2008,04,26,07,10,5.10
2008,04,26,07,11,5.10
2008,04,26,07,12,5.10
2008,04,26,07,13,5.20
2008,04,26,07,14,5.20
2008,04,26,07,15,5.20
2008,04,26,07,16,5.30
2008,04,26,07,17,5.30
2008,04,26,07,18,5.30
2008,04,26,07,19,5.30
2008,04,26,07,20,5.30
2008,04,26,07,21,5.40
2008,04,26,07,22,5.40
2008,04,26,07,23,5.40
2008,04,26,07,24,5.50
2008,04,26,07,25,5.50
2008,04,26,07,26,5.50
2008,04,26,07,27,5.60
2008,04,26,07,28,5.60
2008,04,26,07,29,5.70
2008,04,26,07,30,5.70
2008,04,26,07,31,5.70
2008,04,26,07,32,5.70
2008,04,26,07,33,5.70
2008,04,26,07,34,5.70
2008,04,26,07,35,5.70
2008,04,26,07,36,5.70
2008,04,26,07,37,5.70
2008,04,26,07,38,5.80
2008,04,26,07,39,5.80
2008,04,26,07,40,5.80
2008,04,26,07,41,5.90
2008,04,26,07,42,5.90
2008,04,26,07,43,5.90
2008,04,26,07,44,5.90
2008,04,26,07,45,6.00
2008,04,26,07,46,6.00
2008,04,26,07,47,6.10
2008,04,26,07,48,6.10
2008,04,26,07,49,6.20
2008,04,26,07,50,6.20
2008,04,26,07,51,6.20
2008,04,26,07,52,6.20
2008,04,26,07,53,6.20
2008,04,26,07,54,6.20
2008,04,26,07,55,6.30
2008,04,26,07,56,6.30
2008,04,26,07,57,6.30
2008,04,26,07,58,6.40
2008,04,26,07,59,6.40
2008,04,26,08,00,6.40
2008,04,26,08,01,6.50
2008,04,26,08,02,6.60
2008,04,26,08,03,6.60
2008,04,26,08,04,6.70
2008,04,26,08,05,6.80
2008,04,26,08,06,6.80
2008,04,26,08,07,6.80
2008,04,26,08,08,6.80
2008,04,26,08,09,6.90
2008,04,26,08,10,6.90
2008,04,26,08,11,7.00
2008,04,26,08,12,7.00
2008,04,26,08,13,7.00
2008,04,26,08,14,7.00
2008,04,26,08,15,7.10
2008,04,26,08,16,7.10
2008,04,26,08,17,7.20
2008,04,26,08,18,7.20
2008,04,26,08,19,7.20
2008,04,26,08,20,7.30
2008,04,26,08,21,7.30
2008,04,26,08,22,7.30
2008,04,26,08,23,7.30
2008,04,26,08,24,7.30
2008,04,26,08,25,7.30
2008,04,26,08,26,7.30
2008,04,26,08,27,7.30
2008,04,26,08,28,7.30
2008,04,26,08,29,7.30
2008,04,26,08,30,7.30
2008,04,26,08,31,7.30
2008,04,26,08,32,7.30
2008,04,26,08,33,7.30
2008,04,26,08,34,7.30
2008,04,26,08,35,7.30
2008,04,26,08,36,7.40
2008,04,26,08,37,7.50
2008,04,26,08,38,7.50
2008,04,26,08,39,7.50
2008,04,26,08,40,7.50
2008,04,26,08,41,7.60
2008,04,26,08,42,7.60
2008,04,26,08,43,7.60
2008,04,26,08,44,7.70
2008,04,26,08,45,7.70
2008,04,26,08,46,7.70
2008,04,26,08,47,7.80
2008,04,26,08,48,7.80
2008,04,26,08,49,7.80
2008,04,26,08,50,7.80
2008,04,26,08,51,7.80
2008,04,26,08,52,7.80
2008,04,26,08,53,7.90
2008,04,26,08,54,7.90
2008,04,26,08,55,8.00
2008,04,26,08,56,8.00
2008,04,26,08,57,8.10
2008,04,26,08,58,8.20
2008,04,26,08,59,8.20
2008,04,26,09,00,8.20
2008,04,26,09,01,8.20
2008,04,26,09,02,8.20
2008,04,26,09,03,8.20
2008,04,26,09,04,8.20
2008,04,26,09,05,8.20
2008,04,26,09,06,8.30
2008,04,26,09,07,8.40
2008,04,26,09,08,8.40
2008,04,26,09,09,8.50
2008,04,26,09,10,8.50
2008,04,26,09,11,8.60
2008,04,26,09,12,8.70
2008,04,26,09,13,8.70
2008,04,26,09,14,8.70
2008,04,26,09,15,8.70
2008,04,26,09,16,8.70
2008,04,26,09,17,8.80
2008,04,26,09,18,8.80
2008,04,26,09,19,8.80
2008,04,26,09,20,8.90
2008,04,26,09,21,9.00
2008,04,26,09,22,9.00
2008,04,26,09,23,9.00
2008,04,26,09,24,8.90
2008,04,26,09,25,8.90
2008,04,26,09,26,8.90
2008,04,26,09,27,8.80
2008,04,26,09,28,8.80
2008,04,26,09,29,8.80
2008,04,26,09,30,8.80
2008,04,26,09,31,8.80
2008,04,26,09,32,8.80
2008,04,26,09,33,8.80
2008,04,26,09,34,8.70
2008,04,26,09,35,8.80
2008,04,26,09,36,8.80
2008,04,26,09,37,8.80
2008,04,26,09,38,8.80
2008,04,26,09,39,8.80
2008,04,26,09,40,8.80
2008,04,26,09,41,8.80
2008,04,26,09,42,8.90
2008,04,26,09,43,8.90
2008,04,26,09,44,8.80
2008,04,26,09,45,8.90
2008,04,26,09,46,9.00
2008,04,26,09,47,9.00
2008,04,26,09,48,9.00
2008,04,26,09,49,9.00
2008,04,26,09,50,9.00
2008,04,26,09,51,9.00
2008,04,26,09,52,8.90
2008,04,26,09,53,9.00
2008,04,26,09,54,9.00
2008,04,26,09,55,9.00
2008,04,26,09,56,8.90
2008,04,26,09,57,8.90
2008,04,26,09,58,8.90
2008,04,26,09,59,9.00
2008,04,26,10,00,9.10
2008,04,26,10,01,9.20
2008,04,26,10,02,9.20
2008,04,26,10,03,9.20
2008,04,26,10,04,9.20
2008,04,26,10,05,9.30
2008,04,26,10,06,9.20
2008,04,26,10,07,9.20
2008,04,26,10,08,9.20
2008,04,26,10,09,9.30
2008,04,26,10,10,9.30
2008,04,26,10,11,9.30
2008,04,26,10,12,9.20
2008,04,26,10,13,9.20
2008,04,26,10,14,9.20
2008,04,26,10,15,9.20
2008,04,26,10,16,9.30
2008,04,26,10,17,9.30
2008,04,26,10,18,9.40
2008,04,26,10,19,9.40
2008,04,26,10,20,9.40
2008,04,26,10,21,9.40
2008,04,26,10,22,9.40
2008,04,26,10,23,9.40
2008,04,26,10,24,9.40
2008,04,26,10,25,9.40
2008,04,26,10,26,9.50
2008,04,26,10,27,9.50
2008,04,26,10,28,9.60
2008,04,26,10,29,9.70
2008,04,26,10,30,9.70
2008,04,26,10,31,9.70
2008,04,26,10,32,9.80
2008,04,26,10,33,9.90
2008,04,26,10,34,9.80
2008,04,26,10,35,9.80
2008,04,26,10,36,9.80
2008,04,26,10,37,9.90
2008,04,26,10,38,9.90
2008,04,26,10,39,10.00
2008,04,26,10,40,10.10
2008,04,26,10,41,10.20
2008,04,26,10,42,10.20
2008,04,26,10,43,10.20
2008,04,26,10,44,10.10
2008,04,26,10,45,10.10
2008,04,26,10,46,10.10
2008,04,26,10,47,10.10
2008,04,26,10,48,10.10
2008,04,26,10,49,10.10
2008,04,26,10,50,10.00
2008,04,26,10,51,9.90
2008,04,26,10,52,9.90
2008,04,26,10,53,9.90
2008,04,26,10,54,10.10
2008,04,26,10,55,10.20
2008,04,26,10,56,10.30
2008,04,26,10,57,10.40
2008,04,26,10,58,10.50
2008,04,26,10,59,10.60
2008,04,26,11,00,10.70
2008,04,26,11,01,10.70
2008,04,26,11,02,10.60
2008,04,26,11,03,10.60
2008,04,26,11,04,10.60
2008,04,26,11,05,10.70
2008,04,26,11,06,10.70
2008,04,26,11,07,10.80
2008,04,26,11,08,10.80
2008,04,26,11,09,10.80
2008,04,26,11,10,10.70
2008,04,26,11,11,10.60
2008,04,26,11,12,10.50
2008,04,26,11,13,10.50
2008,04,26,11,14,10.60
2008,04,26,11,15,10.60
2008,04,26,11,16,10.60
2008,04,26,11,17,10.60
2008,04,26,11,18,10.70
2008,04,26,11,19,10.80
2008,04,26,11,20,10.80
2008,04,26,11,21,10.80
2008,04,26,11,22,10.70
2008,04,26,11,23,10.50
2008,04,26,11,24,10.40
2008,04,26,11,25,10.40
2008,04,26,11,26,10.40
2008,04,26,11,27,10.40
2008,04,26,11,28,10.40
2008,04,26,11,29,10.60
2008,04,26,11,30,10.60
2008,04,26,11,31,10.70
2008,04,26,11,32,10.60
2008,04,26,11,33,10.60
2008,04,26,11,34,10.60
2008,04,26,11,35,10.50
2008,04,26,11,36,10.40
2008,04,26,11,37,10.40
2008,04,26,11,38,10.40
2008,04,26,11,39,10.40
2008,04,26,11,40,10.40
2008,04,26,11,41,10.60
2008,04,26,11,42,10.60
2008,04,26,11,43,10.70
2008,04,26,11,44,10.90
2008,04,26,11,45,10.90
2008,04,26,11,46,10.90
2008,04,26,11,47,10.90
2008,04,26,11,48,11.10
2008,04,26,11,49,11.20
2008,04,26,11,50,11.40
2008,04,26,11,51,11.40
2008,04,26,11,52,11.50
2008,04,26,11,53,11.60
2008,04,26,11,54,11.60
2008,04,26,11,55,11.60
2008,04,26,11,56,11.60
2008,04,26,11,57,11.60
2008,04,26,11,58,11.60
2008,04,26,11,59,11.70
2008,04,26,12,00,11.80
2008,04,26,12,01,11.80
2008,04,26,12,02,11.80
2008,04,26,12,03,12.00
2008,04,26,12,04,12.10
2008,04,26,12,05,12.20
2008,04,26,12,06,12.30
2008,04,26,12,07,12.50
2008,04,26,12,08,12.60
2008,04,26,12,09,12.70
2008,04,26,12,10,12.50
2008,04,26,12,11,12.40
2008,04,26,12,12,12.30
2008,04,26,12,13,12.20
2008,04,26,12,14,12.20
2008,04,26,12,15,12.20
2008,04,26,12,16,12.30
2008,04,26,12,17,12.30
2008,04,26,12,18,12.30
2008,04,26,12,19,12.30
2008,04,26,12,20,12.30
2008,04,26,12,21,12.40
2008,04,26,12,22,12.50
2008,04,26,12,23,12.50
2008,04,26,12,24,12.50
2008,04,26,12,25,12.40
2008,04,26,12,26,12.30
2008,04,26,12,27,12.20
2008,04,26,12,28,12.00
2008,04,26,12,29,11.90
2008,04,26,12,30,12.00
2008,04,26,12,31,12.00
2008,04,26,12,32,12.00
2008,04,26,12,33,12.00
2008,04,26,12,34,12.10
2008,04,26,12,35,12.00
2008,04,26,12,36,11.90
2008,04,26,12,37,11.80
2008,04,26,12,38,11.80
2008,04,26,12,39,11.90
2008,04,26,12,40,12.10
2008,04,26,12,41,12.20
2008,04,26,12,42,12.20
2008,04,26,12,43,12.30
2008,04,26,12,44,12.30
2008,04,26,12,45,12.30
2008,04,26,12,46,12.30
2008,04,26,12,47,12.10
2008,04,26,12,48,11.90
2008,04,26,12,49,11.80
2008,04,26,12,50,11.80
2008,04,26,12,51,11.70
2008,04,26,12,52,11.70
2008,04,26,12,53,11.80
2008,04,26,12,54,11.80
2008,04,26,12,55,11.70
2008,04,26,12,56,11.60
2008,04,26,12,57,11.60
2008,04,26,12,58,11.60
2008,04,26,12,59,11.60
2008,04,26,13,00,11.70
2008,04,26,13,01,11.70
2008,04,26,13,02,11.80
2008,04,26,13,03,11.70
2008,04,26,13,04,11.80
2008,04,26,13,05,11.90
2008,04,26,13,06,12.00
2008,04,26,13,07,12.10
2008,04,26,13,08,12.30
2008,04,26,13,09,12.40
2008,04,26,13,10,12.50
2008,04,26,13,11,12.60
2008,04,26,13,12,12.70
2008,04,26,13,13,12.70
2008,04,26,13,14,12.80
2008,04,26,13,15,12.90
2008,04,26,13,16,12.90
2008,04,26,13,17,13.00
2008,04,26,13,18,13.10
2008,04,26,13,19,13.10
2008,04,26,13,20,13.10
2008,04,26,13,21,13.10
2008,04,26,13,22,13.10
2008,04,26,13,23,13.10
2008,04,26,13,24,13.10
2008,04,26,13,25,13.10
2008,04,26,13,26,13.00
2008,04,26,13,27,12.90
2008,04,26,13,28,12.90
2008,04,26,13,29,12.80
2008,04,26,13,30,12.80
2008,04,26,13,31,12.80
2008,04,26,13,32,12.80
2008,04,26,13,33,13.00
2008,04,26,13,34,13.00
2008,04,26,13,35,12.90
2008,04,26,13,36,12.80
2008,04,26,13,37,12.70
2008,04,26,13,38,12.70
2008,04,26,13,39,12.70
2008,04,26,13,40,12.80
2008,04,26,13,41,13.00
2008,04,26,13,42,13.00
2008,04,26,13,43,13.00
2008,04,26,13,44,13.10
2008,04,26,13,45,13.20
2008,04,26,13,46,13.30
2008,04,26,13,47,13.50
2008,04,26,13,48,13.40
2008,04,26,13,49,13.30
2008,04,26,13,50,13.30
2008,04,26,13,51,13.20
2008,04,26,13,52,13.20
2008,04,26,13,53,13.30
2008,04,26,13,54,13.20
2008,04,26,13,55,13.20
2008,04,26,13,56,13.20
2008,04,26,13,57,13.30
2008,04,26,13,58,13.40
2008,04,26,13,59,13.50
2008,04,26,14,00,13.50
2008,04,26,14,01,13.40
2008,04,26,14,02,13.30
2008,04,26,14,03,13.30
2008,04,26,14,04,13.30
2008,04,26,14,05,13.30
2008,04,26,14,06,13.40
2008,04,26,14,07,13.50
2008,04,26,14,08,13.50
2008,04,26,14,09,13.50
2008,04,26,14,10,13.60
2008,04,26,14,11,13.60
2008,04,26,14,12,13.60
2008,04,26,14,13,13.60
2008,04,26,14,14,13.60
2008,04,26,14,15,13.60
2008,04,26,14,16,13.70
2008,04,26,14,17,13.50
2008,04,26,14,18,13.30
2008,04,26,14,19,13.40
2008,04,26,14,20,13.40
2008,04,26,14,21,13.40
2008,04,26,14,22,13.50
2008,04,26,14,23,13.50
2008,04,26,14,24,13.50
2008,04,26,14,25,13.50
2008,04,26,14,26,13.30
2008,04,26,14,27,13.30
2008,04,26,14,28,13.40
2008,04,26,14,29,13.40
2008,04,26,14,30,13.20
2008,04,26,14,31,13.10
2008,04,26,14,32,13.10
2008,04,26,14,33,13.10
2008,04,26,14,34,13.10
2008,04,26,14,35,13.10
2008,04,26,14,36,13.10
2008,04,26,14,37,12.90
2008,04,26,14,38,12.90
2008,04,26,14,39,12.90
2008,04,26,14,40,13.00
2008,04,26,14,41,13.20
2008,04,26,14,42,13.20
2008,04,26,14,43,13.30
2008,04,26,14,44,13.40
2008,04,26,14,45,13.60
2008,04,26,14,46,13.60
2008,04,26,14,47,13.60
2008,04,26,14,48,13.70
2008,04,26,14,49,13.70
2008,04,26,14,50,13.60
2008,04,26,14,51,13.40
2008,04,26,14,52,13.30
2008,04,26,14,53,13.30
2008,04,26,14,54,13.40
2008,04,26,14,55,13.50
2008,04,26,14,56,13.50
2008,04,26,14,57,13.60
2008,04,26,14,58,13.70
2008,04,26,14,59,13.80
2008,04,26,15,00,13.90
2008,04,26,15,01,14.00
2008,04,26,15,02,14.00
2008,04,26,15,03,13.90
2008,04,26,15,04,13.80
2008,04,26,15,05,13.60
2008,04,26,15,06,13.60
2008,04,26,15,07,13.60
2008,04,26,15,08,13.60
2008,04,26,15,09,13.60
2008,04,26,15,10,13.70
2008,04,26,15,11,13.70
2008,04,26,15,12,13.70
2008,04,26,15,13,13.70
2008,04,26,15,14,13.80
2008,04,26,15,15,13.90
2008,04,26,15,16,13.90
2008,04,26,15,17,14.00
2008,04,26,15,18,14.00
2008,04,26,15,19,13.90
2008,04,26,15,20,13.90
2008,04,26,15,21,13.90
2008,04,26,15,22,13.90
2008,04,26,15,23,13.90
2008,04,26,15,24,14.00
2008,04,26,15,25,14.10
2008,04,26,15,26,14.10
2008,04,26,15,27,14.20
2008,04,26,15,28,14.30
2008,04,26,15,29,14.30
2008,04,26,15,30,14.30
2008,04,26,15,31,14.30
2008,04,26,15,32,14.30
2008,04,26,15,33,14.30
2008,04,26,15,34,14.40
2008,04,26,15,35,14.40
2008,04,26,15,36,14.40
2008,04,26,15,37,14.40
2008,04,26,15,38,14.40
2008,04,26,15,39,14.30
2008,04,26,15,40,14.30
2008,04,26,15,41,14.40
2008,04,26,15,42,14.50
2008,04,26,15,43,14.30
2008,04,26,15,44,14.10
2008,04,26,15,45,13.90
2008,04,26,15,46,13.80
2008,04,26,15,47,13.80
2008,04,26,15,48,13.80
2008,04,26,15,49,13.90
2008,04,26,15,50,13.90
2008,04,26,15,51,14.00
2008,04,26,15,52,14.20
2008,04,26,15,53,14.20
2008,04,26,15,54,14.30
2008,04,26,15,55,14.40
2008,04,26,15,56,14.50
2008,04,26,15,57,14.60
2008,04,26,15,58,14.70
2008,04,26,15,59,14.60
2008,04,26,16,00,14.60
2008,04,26,16,01,14.50
2008,04,26,16,02,14.50
2008,04,26,16,03,14.50
2008,04,26,16,04,14.60
2008,04,26,16,05,14.70
2008,04,26,16,06,14.80
2008,04,26,16,07,14.80
2008,04,26,16,08,14.90
2008,04,26,16,09,15.00
2008,04,26,16,10,15.00
2008,04,26,16,11,15.00
2008,04,26,16,12,15.00
2008,04,26,16,13,15.00
2008,04,26,16,14,15.00
2008,04,26,16,15,15.10
2008,04,26,16,16,15.00
2008,04,26,16,17,15.00
2008,04,26,16,18,15.10
2008,04,26,16,19,15.20
2008,04,26,16,20,15.20
2008,04,26,16,21,15.20
2008,04,26,16,22,15.20
2008,04,26,16,23,15.30
2008,04,26,16,24,15.30
2008,04,26,16,25,15.30
2008,04,26,16,26,15.40
2008,04,26,16,27,15.40
2008,04,26,16,28,15.40
2008,04,26,16,29,15.40
2008,04,26,16,30,15.40
2008,04,26,16,31,15.40
2008,04,26,16,32,15.40
2008,04,26,16,33,15.40
2008,04,26,16,34,15.30
2008,04,26,16,35,15.30
2008,04,26,16,36,15.30
2008,04,26,16,37,15.20
2008,04,26,16,38,15.20
2008,04,26,16,39,15.30
2008,04,26,16,40,15.30
2008,04,26,16,41,15.30
2008,04,26,16,42,15.30
2008,04,26,16,43,15.40
2008,04,26,16,44,15.50
2008,04,26,16,45,15.50
2008,04,26,16,46,15.60
2008,04,26,16,47,15.60
2008,04,26,16,48,15.60
2008,04,26,16,49,15.60
2008,04,26,16,50,15.70
2008,04,26,16,51,15.70
2008,04,26,16,52,15.70
2008,04,26,16,53,15.70
2008,04,26,16,54,15.60
2008,04,26,16,55,15.60
2008,04,26,16,56,15.60
2008,04,26,16,57,15.60
2008,04,26,16,58,15.50
2008,04,26,16,59,15.50
2008,04,26,17,00,15.40
2008,04,26,17,01,15.30
2008,04,26,17,02,15.30
2008,04,26,17,03,15.30
2008,04,26,17,04,15.30
2008,04,26,17,05,15.30
2008,04,26,17,06,15.30
2008,04,26,17,07,15.30
2008,04,26,17,08,15.30
2008,04,26,17,09,15.30
2008,04,26,17,10,15.20
2008,04,26,17,11,15.10
2008,04,26,17,12,15.00
2008,04,26,17,13,14.90
2008,04,26,17,14,14.80
2008,04,26,17,15,14.80
2008,04,26,17,16,14.70
2008,04,26,17,17,14.60
2008,04,26,17,18,14.60
2008,04,26,17,19,14.60
2008,04,26,17,20,14.50
2008,04,26,17,21,14.50
2008,04,26,17,22,14.50
2008,04,26,17,23,14.40
2008,04,26,17,24,14.40
2008,04,26,17,25,14.40
2008,04,26,17,26,14.40
2008,04,26,17,27,14.40
2008,04,26,17,28,14.40
2008,04,26,17,29,14.30
2008,04,26,17,30,14.30
2008,04,26,17,31,14.20
2008,04,26,17,32,14.20
2008,04,26,17,33,14.20
2008,04,26,17,34,14.20
2008,04,26,17,35,14.20
2008,04,26,17,36,14.20
2008,04,26,17,37,14.00
2008,04,26,17,38,14.00
2008,04,26,17,39,13.90
2008,04,26,17,40,13.90
2008,04,26,17,41,14.00
2008,04,26,17,42,14.00
2008,04,26,17,43,14.00
2008,04,26,17,44,14.00
2008,04,26,17,45,14.00
2008,04,26,17,46,14.00
2008,04,26,17,47,14.00